Wind_Speed
84 68 47 49 48 53 33 34 35 34 34 32 19 16 15 16 21 28 33 31 33 32 30 33 35 36 35 37 34 36 38 35 36 40 37 33 31 29 29 29 28 30 29
80 63 54 46 41 43 35 34 34 27 24 20 15 18 12 17 25 25 23 29 25 26 35 37 35 31 32 32 33 35 34 33 34 35 34 34 31 30 30 27 27 29 28
57 48 44 42 43 48 47 34 33 33 32 30 23 25 18 17 19 27 29 30 33 30 37 36 36 36 37 36 34 33 31 31 32 30 31 33 34 31 31 26 26 28 27
44 40 39 37 38 38 37 38 29 27 28 31 33 35 39 31 33 35 36 34 40 35 39 37 40 40 38 38 33 30 27 29 32 30 30 33 32 32 29 27 26 26 25
35 34 35 33 30 27 26 31 28 28 26 23 29 34 34 35 44 44 41 35 30 34 35 36 46 44 35 34 34 35 27 28 28 28 30 30 31 27 27 26 25 25 24
32 29 33 34 34 35 28 23 21 21 21 23 27 29 28 28 35 41 40 28 34 45 40 42 43 44 39 39 33 29 28 29 30 32 30 30 30 29 29 28 26 26 24
33 31 31 27 29 30 29 31 32 29 27 27 30 26 29 37 40 41 46 39 36 33 34 38 36 41 44 43 40 34 31 33 34 33 30 30 29 30 31 28 26 26 25
30 32 33 31 28 25 30 31 35 34 34 30 32 31 30 32 33 37 38 35 37 31 31 34 31 40 43 45 43 35 34 35 34 33 29 27 28 30 30 28 28 28 27
27 28 27 30 31 35 35 34 34 36 35 31 33 32 32 33 25 33 31 29 31 35 35 30 29 29 35 46 43 44 38 36 37 32 29 28 28 30 31 31 30 29 29
24 23 25 30 34 36 34 30 31 25 25 25 26 30 32 33 30 31 33 29 28 27 24 31 29 31 33 31 38 39 38 40 36 33 31 30 31 31 32 32 33 33 31
25 27 28 32 33 32 29 28 18 23 21 23 26 26 30 33 38 27 28 32 29 25 23 26 30 32 35 35 36 37 37 39 37 34 32 29 33 34 32 33 35 36 34
25 30 29 28 26 25 24 19 20 23 23 26 17 27 27 23 20 24 23 29 31 30 29 28 30 31 31 34 35 35 36 38 36 39 34 31 33 38 35 35 36 37 37
26 27 32 23 22 20 20 18 20 21 24 26 20 16 17 16 19 21 21 21 25 27 27 27 30 29 31 28 28 33 35 33 32 36 36 38 39 40 38 37 39 39 42
22 21 19 24 21 19 18 18 17 18 21 20 19 18 19 19 21 22 22 22 23 25 28 30 31 33 35 37 33 35 38 37 36 38 37 39 40 41 41 40 42 43 44
21 18 18 21 24 20 16 19 20 20 22 24 23 21 22 22 21 19 20 21 21 22 21 21 23 27 30 34 34 33 37 39 39 39 40 41 41 42 42 41 41 43 44
19 19 19 20 24 26 27 24 24 24 25 25 24 23 23 23 24 24 24 24 24 23 23 21 22 25 29 32 31 33 36 38 36 36 38 38 39 44 44 42 39 41 41
22 22 24 24 24 22 30 28 30 26 27 27 26 25 25 25 26 26 26 27 26 26 26 27 27 27 28 31 32 33 34 35 35 35 37 41 41 39 36 35 35 36 39
29 28 28 28 27 27 23 20 27 31 29 27 27 29 29 28 29 29 29 28 29 29 30 31 30 30 29 29 30 32 32 32 33 32 28 26 27 29 30 32 34 37 40
34 36 31 29 30 28 27 26 24 26 32 33 33 32 34 33 32 32 33 32 30 31 30 30 31 31 29 30 30 29 28 27 28 28 28 28 30 32 33 34 35 36 38
41 39 35 32 31 30 29 29 30 29 29 29 30 31 31 32 31 33 35 32 31 32 31 31 31 30 30 30 31 30 30 30 32 33 34 36 37 37 37 38 39 41 42
31 31 32 34 33 32 33 33 33 33 34 32 33 34 34 34 34 33 33 32 33 34 34 33 33 33 32 32 34 34 34 35 37 39 39 39 39 40 41 41 41 42 42
30 30 31 30 31 33 34 36 36 36 35 34 35 35 36 36 35 33 32 32 34 36 36 36 36 35 36 37 37 37 36 36 37 38 40 40 39 38 37 37 37 37 39
31 31 30 27 27 29 30 31 31 31 32 31 32 32 33 33 33 34 34 35 34 35 37 37 37 38 39 39 40 40 39 38 37 37 35 35 34 35 36 38 39 42 44
30 31 29 27 28 28 26 26 26 26 27 29 30 30 31 32 33 34 35 35 35 36 35 36 37 38 40 40 40 38 36 34 35 35 36 37 38 40 42 44 48 51 54
29 28 27 27 24 24 23 23 23 24 24 25 26 28 29 30 33 36 38 39 39 38 38 37 37 36 37 36 35 35 35 36 38 40 41 43 45 47 50 53 56 60 62
27 26 25 25 26 25 24 23 23 23 23 24 25 27 29 30 30 32 33 34 35 36 36 36 35 35 35 35 37 39 39 41 43 46 49 51 53 56 59 63 65 68 71
Wind_Direction
299 297 282 287 295 287 271 281 268 243 248 245 245 261 258 249 234 233 225 216 216 233 246 241 247 251 249 259 260 268 272 275 278 278 272 269 265 264 266 267 272 274 275
295 291 285 279 256 275 267 274 258 246 246 266 238 240 231 240 250 248 250 252 247 251 248 247 250 259 256 253 259 262 269 273 271 269 267 265 265 268 267 267 273 274 276
288 285 279 274 269 264 268 274 260 246 240 242 234 234 205 229 233 250 258 264 268 262 254 259 253 254 252 257 254 255 262 266 263 263 264 265 263 264 265 268 271 274 277
282 280 279 281 273 267 259 267 250 242 244 239 231 230 243 237 238 247 251 248 262 255 247 259 252 250 251 254 247 252 259 263 263 260 263 265 264 262 263 264 269 273 277
283 278 281 287 286 290 287 277 249 241 238 229 225 220 229 240 237 242 236 250 250 251 252 264 250 245 244 246 245 250 262 263 262 263 261 266 269 268 272 271 268 273 276
279 274 278 287 286 290 283 275 285 268 255 238 246 228 234 234 242 253 256 251 251 249 246 254 262 250 242 241 245 246 254 263 259 256 259 262 264 267 266 266 268 271 272
279 280 282 279 283 283 280 279 278 273 267 262 258 255 244 237 242 244 258 269 272 263 264 266 245 243 244 241 241 241 247 253 257 257 259 261 265 264 263 265 268 269 271
277 276 278 279 283 281 286 284 279 270 268 265 253 253 251 244 256 241 254 259 268 266 264 267 263 250 251 249 245 251 247 249 252 254 255 258 265 269 272 268 266 268 267
280 286 285 282 283 285 288 287 272 262 262 254 242 244 244 247 237 235 242 244 256 263 267 259 258 259 246 248 244 252 248 246 248 247 252 258 264 266 267 265 264 265 266
282 284 285 287 285 283 282 276 271 253 236 233 235 237 235 244 240 245 249 257 253 248 260 262 248 246 248 251 250 252 253 244 244 245 252 257 262 265 265 264 259 265 263
292 295 296 288 275 268 271 268 247 240 232 234 240 239 242 237 236 249 249 259 251 249 256 257 254 252 256 258 252 249 241 245 244 248 253 258 261 265 263 261 259 262 261
289 289 293 291 264 271 252 252 241 233 231 225 248 237 236 251 247 250 258 250 254 249 265 258 253 258 256 255 250 242 243 247 250 251 255 257 260 265 263 258 258 262 261
292 297 298 264 259 266 242 242 244 240 236 240 248 244 246 253 259 261 264 262 260 261 258 260 258 256 247 249 249 244 246 247 255 259 260 255 264 264 265 259 258 260 261
291 301 303 258 255 247 242 239 237 240 240 241 245 251 254 258 260 259 261 263 266 266 267 264 259 251 249 250 256 254 248 249 259 262 261 259 261 264 264 259 259 260 262
285 292 292 280 262 258 259 254 246 243 246 246 246 249 254 254 253 258 257 264 272 274 274 269 261 249 250 255 254 251 247 254 259 258 260 259 261 264 265 264 263 264 263
279 282 284 292 275 256 253 257 254 249 249 248 248 249 251 251 252 257 260 266 269 272 276 274 264 258 256 252 251 247 249 254 255 263 263 264 265 268 271 269 265 266 265
285 289 284 281 285 278 250 257 257 250 252 253 250 249 252 255 257 259 261 263 267 269 270 269 268 264 259 256 256 257 258 258 262 262 264 266 268 268 268 265 260 262 264
276 279 282 277 275 278 278 274 257 253 253 259 258 255 252 253 255 257 260 264 267 268 268 270 270 269 267 265 262 260 259 261 263 263 261 266 270 271 270 267 264 265 266
272 276 274 272 271 268 269 269 266 263 250 252 255 257 261 262 262 261 262 265 266 267 266 266 266 266 262 262 261 259 260 261 257 257 259 267 271 272 273 273 272 272 273
274 276 273 268 269 270 267 268 268 262 258 257 254 254 258 260 260 261 263 265 263 262 262 263 264 262 259 260 261 264 264 262 260 261 264 267 270 269 270 271 273 273 274
268 266 265 266 269 270 270 269 267 265 264 263 260 259 259 260 261 260 260 261 259 258 258 258 259 258 260 261 261 261 262 262 262 264 266 268 269 269 270 273 275 276 277
267 267 268 266 269 271 271 269 265 262 260 259 259 260 261 260 259 258 257 254 256 254 251 253 255 258 260 262 264 264 263 264 265 266 267 268 270 272 275 276 278 281 284
269 264 271 267 267 268 269 266 260 258 259 260 262 262 261 261 260 257 255 255 260 257 256 257 256 258 260 262 265 266 267 267 266 268 269 271 273 276 278 281 283 285 287
264 267 265 263 270 264 262 260 259 261 262 262 261 261 259 257 258 257 259 260 263 258 256 255 256 258 259 262 263 264 265 266 267 268 271 274 276 279 281 283 287 290 291
262 263 266 269 270 267 264 264 265 266 265 265 266 263 260 259 258 257 257 257 257 258 258 258 258 258 257 259 262 265 266 267 270 273 275 277 279 281 285 288 290 291 291
265 265 266 268 269 268 269 271 272 272 273 272 269 266 263 262 260 258 256 255 254 255 256 258 259 261 264 264 265 267 270 273 276 278 280 282 284 286 288 289 290 291 291
Height
5594 5586 5580 5575 5572 5563 5564 5562 5562 5563 5562 5561 5562 5561 5562 5565 5571 5575 5579 5580 5583 5586 5590 5594 5599 5603 5608 5610 5612 5613 5616 5616 5616 5616 5615 5615 5614 5613 5613 5615 5615 5615 5615
5575 5569 5564 5560 5559 5555 5553 5554 5555 5553 5555 5555 5556 5558 5560 5562 5567 5571 5573 5574 5575 5579 5583 5587 5592 5595 5599 5602 5604 5606 5607 5607 5609 5608 5608 5608 5609 5608 5610 5607 5607 5609 5608
5556 5555 5550 5547 5546 5542 5544 5546 5548 5549 5548 5548 5550 5552 5554 5557 5561 5562 5565 5567 5570 5575 5577 5580 5584 5588 5593 5595 5595 5597 5600 5600 5601 5600 5600 5601 5602 5601 5602 5600 5600 5601 5599
5544 5542 5540 5538 5536 5535 5534 5538 5539 5540 5541 5542 5545 5547 5550 5551 5552 5555 5558 5561 5565 5568 5571 5574 5577 5581 5583 5586 5588 5589 5591 5593 5593 5593 5593 5595 5593 5593 5593 5593 5593 5593 5592
5534 5533 5532 5530 5529 5528 5528 5530 5531 5532 5533 5535 5538 5540 5543 5544 5547 5549 5551 5554 5557 5560 5564 5565 5567 5572 5573 5577 5579 5581 5582 5584 5585 5586 5586 5586 5586 5585 5585 5586 5585 5585 5584
5526 5525 5525 5523 5522 5520 5522 5523 5524 5525 5526 5528 5530 5532 5534 5537 5539 5541 5542 5545 5548 5552 5553 5557 5559 5561 5562 5566 5571 5570 5573 5575 5576 5578 5577 5577 5578 5578 5579 5578 5578 5578 5578
5518 5518 5517 5516 5515 5515 5515 5514 5515 5518 5520 5522 5523 5525 5527 5530 5531 5534 5535 5537 5539 5541 5544 5546 5548 5550 5554 5556 5560 5559 5562 5566 5568 5570 5570 5570 5570 5571 5571 5570 5570 5571 5571
5511 5510 5509 5509 5509 5508 5508 5507 5506 5508 5510 5512 5514 5516 5519 5523 5523 5527 5529 5530 5532 5534 5537 5539 5540 5542 5544 5547 5549 5551 5553 5556 5559 5561 5562 5560 5561 5562 5563 5562 5563 5564 5565
5505 5504 5502 5501 5501 5500 5499 5497 5496 5497 5499 5501 5504 5507 5512 5515 5518 5521 5523 5525 5527 5526 5527 5528 5530 5531 5534 5537 5540 5542 5544 5547 5550 5552 5552 5552 5553 5554 5555 5555 5556 5557 5558
5498 5497 5495 5494 5492 5491 5489 5488 5487 5487 5490 5493 5496 5500 5503 5506 5509 5513 5516 5517 5518 5519 5520 5520 5522 5525 5527 5528 5531 5534 5536 5539 5541 5542 5543 5544 5545 5546 5547 5547 5548 5549 5550
5491 5489 5487 5485 5483 5482 5481 5481 5481 5484 5485 5488 5491 5494 5496 5498 5501 5503 5506 5508 5510 5511 5513 5514 5515 5516 5518 5519 5522 5524 5527 5529 5531 5533 5534 5535 5537 5537 5537 5538 5539 5540 5542
5484 5483 5480 5476 5475 5475 5474 5475 5477 5479 5481 5482 5484 5486 5489 5492 5494 5497 5498 5499 5501 5502 5504 5505 5507 5508 5508 5509 5512 5515 5517 5520 5522 5524 5525 5526 5527 5528 5528 5528 5529 5530 5531
5478 5475 5472 5469 5469 5468 5469 5471 5473 5474 5476 5478 5480 5481 5484 5485 5487 5489 5490 5491 5492 5494 5494 5495 5496 5498 5500 5502 5504 5505 5508 5510 5512 5513 5514 5516 5517 5517 5518 5518 5519 5520 5520
5471 5469 5465 5463 5463 5464 5465 5467 5468 5470 5471 5473 5475 5476 5478 5480 5480 5482 5483 5484 5485 5485 5485 5486 5487 5488 5491 5493 5495 5496 5498 5500 5502 5503 5504 5506 5507 5507 5507 5507 5508 5508 5509
5465 5463 5462 5460 5459 5460 5461 5462 5463 5464 5466 5468 5469 5471 5472 5473 5475 5476 5477 5478 5478 5478 5478 5478 5477 5479 5481 5483 5484 5486 5488 5490 5492 5493 5494 5495 5495 5496 5496 5496 5496 5496 5497
5459 5458 5457 5456 5454 5453 5455 5456 5457 5458 5460 5461 5462 5464 5465 5467 5468 5469 5469 5470 5470 5471 5471 5471 5471 5471 5472 5473 5474 5476 5477 5479 5481 5482 5483 5484 5485 5484 5483 5483 5484 5484 5484
5451 5451 5452 5450 5449 5448 5447 5449 5449 5451 5452 5453 5455 5456 5458 5459 5460 5460 5461 5462 5462 5463 5463 5463 5463 5463 5464 5465 5466 5467 5468 5469 5471 5472 5473 5473 5472 5472 5471 5471 5472 5473 5473
5443 5444 5444 5444 5443 5442 5440 5440 5441 5442 5444 5445 5447 5448 5449 5450 5451 5452 5453 5453 5454 5454 5454 5454 5455 5455 5456 5457 5458 5459 5459 5460 5461 5462 5462 5462 5462 5462 5462 5462 5462 5462 5462
5435 5435 5435 5436 5436 5435 5434 5434 5434 5433 5434 5436 5438 5439 5440 5441 5442 5443 5443 5444 5444 5445 5445 5445 5446 5446 5447 5448 5449 5450 5450 5451 5451 5452 5453 5453 5453 5453 5452 5452 5452 5451 5451
5425 5426 5426 5427 5427 5426 5426 5426 5426 5426 5427 5427 5428 5429 5430 5431 5432 5432 5433 5434 5435 5435 5435 5436 5436 5437 5438 5439 5440 5440 5441 5441 5442 5442 5442 5442 5442 5442 5442 5441 5440 5439 5439
5415 5415 5416 5416 5417 5417 5416 5416 5416 5417 5417 5417 5418 5419 5421 5422 5422 5423 5423 5424 5425 5425 5426 5426 5426 5427 5428 5429 5430 5430 5430 5431 5431 5431 5430 5430 5430 5429 5429 5428 5427 5426 5425
5406 5406 5406 5406 5406 5406 5405 5405 5405 5405 5406 5407 5407 5408 5408 5410 5411 5412 5413 5413 5414 5414 5415 5416 5416 5417 5418 5418 5419 5419 5419 5419 5419 5418 5417 5417 5417 5416 5416 5415 5414 5413 5412
5397 5397 5397 5396 5396 5395 5395 5394 5394 5395 5396 5396 5397 5397 5398 5399 5400 5401 5402 5402 5403 5404 5404 5405 5406 5406 5407 5407 5407 5407 5407 5407 5406 5405 5405 5404 5404 5403 5403 5402 5401 5399 5397
5387 5387 5387 5387 5387 5386 5386 5386 5386 5386 5386 5387 5387 5388 5388 5389 5390 5391 5391 5392 5393 5393 5394 5394 5395 5395 5395 5395 5395 5394 5394 5394 5393 5393 5392 5392 5391 5390 5388 5387 5385 5382 5379
5378 5378 5378 5378 5378 5378 5378 5378 5378 5378 5378 5378 5378 5378 5379 5379 5380 5380 5381 5381 5382 5382 5383 5383 5383 5383 5382 5382 5382 5382 5382 5381 5381 5380 5379 5377 5376 5374 5372 5370 5367 5364 5361
5369 5370 5370 5370 5370 5370 5370 5370 5370 5370 5369 5369 5369 5370 5370 5370 5371 5371 5371 5371 5371 5371 5371 5371 5370 5370 5371 5370 5370 5370 5369 5368 5367 5365 5363 5361 5359 5356 5352 5349 5346 5342 5338